QPF
0.00 0.00 0.00 0.00 0.00 0.00 0.00 0.00 0.00 0.00 0.00 0.00 0.00 0.00 0.00 0.00 0.00 0.01 0.00 0.05 0.12 0.10 0.21 0.13 0.06 0.08 0.05 0.02 0.03 0.01 0.00 0.00 0.00 0.00 0.00 0.01 0.00 0.00 0.01 0.02 0.01 0.00 0.00 0.00 0.01 0.00 0.00 0.00 0.00
0.00 0.00 0.00 0.00 0.00 0.00 0.00 0.00 0.00 0.00 0.00 0.00 0.00 0.00 0.00 0.00 0.00 0.00 0.03 0.06 0.16 0.11 0.18 0.25 0.10 0.04 0.05 0.14 0.08 0.00 0.00 0.00 0.00 0.00 0.00 0.01 0.00 0.00 0.01 0.00 0.00 0.00 0.00 0.00 0.00 0.00 0.00 0.00 0.00
0.00 0.00 0.00 0.00 0.00 0.00 0.00 0.00 0.00 0.00 0.00 0.00 0.00 0.00 0.00 0.00 0.00 0.01 0.01 0.03 0.15 0.10 0.08 0.29 0.16 0.04 0.04 0.22 0.07 0.00 0.00 0.00 0.00 0.00 0.00 0.00 0.00 0.00 0.00 0.00 0.00 0.00 0.00 0.00 0.00 0.00 0.00 0.00 0.00
0.00 0.00 0.00 0.00 0.00 0.00 0.00 0.00 0.00 0.00 0.00 0.00 0.00 0.00 0.00 0.01 0.00 0.00 0.01 0.05 0.17 0.06 0.08 0.34 0.21 0.13 0.14 0.19 0.04 0.00 0.00 0.00 0.00 0.00 0.00 0.00 0.00 0.00 0.00 0.00 0.00 0.00 0.00 0.00 0.00 0.00 0.00 0.00 0.01
0.00 0.00 0.00 0.00 0.00 0.00 0.00 0.00 0.00 0.00 0.00 0.00 0.00 0.00 0.00 0.01 0.00 0.00 0.01 0.03 0.09 0.10 0.14 0.32 0.36 0.33 0.11 0.14 0.08 0.00 0.00 0.00 0.02 0.01 0.00 0.00 0.00 0.01 0.02 0.00 0.00 0.00 0.00 0.00 0.00 0.00 0.00 0.00 0.00
0.00 0.00 0.00 0.00 0.00 0.00 0.00 0.00 0.00 0.00 0.00 0.00 0.00 0.00 0.01 0.01 0.00 0.00 0.03 0.04 0.01 0.07 0.23 0.14 0.19 0.28 0.08 0.05 0.13 0.02 0.00 0.02 0.02 0.00 0.00 0.00 0.00 0.00 0.00 0.01 0.03 0.00 0.00 0.00 0.00 0.00 0.00 0.00 0.00
0.00 0.00 0.00 0.00 0.00 0.00 0.00 0.00 0.00 0.00 0.00 0.00 0.00 0.00 0.00 0.01 0.00 0.00 0.01 0.02 0.03 0.07 0.18 0.17 0.07 0.11 0.11 0.12 0.17 0.09 0.02 0.02 0.00 0.00 0.00 0.00 0.00 0.00 0.02 0.01 0.01 0.01 0.01 0.00 0.00 0.00 0.00 0.00 0.00
0.00 0.00 0.00 0.00 0.00 0.00 0.00 0.00 0.00 0.00 0.00 0.00 0.00 0.00 0.00 0.00 0.00 0.00 0.00 0.01 0.08 0.10 0.02 0.16 0.15 0.07 0.10 0.07 0.12 0.13 0.06 0.02 0.00 0.00 0.00 0.00 0.00 0.01 0.00 0.01 0.00 0.00 0.01 0.00 0.00 0.00 0.00 0.00 0.00
0.00 0.00 0.00 0.00 0.00 0.00 0.00 0.00 0.00 0.00 0.00 0.00 0.00 0.00 0.00 0.00 0.00 0.00 0.00 0.02 0.08 0.04 0.00 0.00 0.01 0.10 0.12 0.05 0.04 0.05 0.01 0.00 0.00 0.00 0.00 0.00 0.00 0.00 0.00 0.00 0.00 0.00 0.00 0.00 0.00 0.00 0.00 0.00 0.00
0.00 0.00 0.00 0.00 0.00 0.00 0.00 0.00 0.00 0.00 0.00 0.00 0.00 0.00 0.00 0.00 0.00 0.00 0.00 0.00 0.00 0.00 0.00 0.00 0.00 0.04 0.08 0.04 0.05 0.07 0.01 0.00 0.00 0.00 0.00 0.00 0.00 0.00 0.00 0.00 0.00 0.01 0.00 0.00 0.00 0.00 0.00 0.00 0.00
0.00 0.00 0.00 0.00 0.00 0.00 0.00 0.00 0.00 0.00 0.00 0.00 0.00 0.00 0.00 0.00 0.00 0.00 0.00 0.00 0.00 0.00 0.00 0.00 0.00 0.00 0.00 0.00 0.03 0.04 0.00 0.00 0.00 0.00 0.00 0.00 0.00 0.00 0.00 0.00 0.01 0.01 0.01 0.00 0.00 0.01 0.00 0.00 0.00
0.00 0.00 0.00 0.00 0.00 0.00 0.00 0.00 0.00 0.00 0.00 0.00 0.00 0.00 0.00 0.00 0.00 0.00 0.00 0.00 0.00 0.00 0.00 0.00 0.00 0.00 0.01 0.03 0.01 0.01 0.00 0.00 0.00 0.00 0.00 0.00 0.00 0.00 0.00 0.00 0.00 0.00 0.01 0.04 0.02 0.00 0.00 0.00 0.00
0.00 0.00 0.00 0.00 0.00 0.00 0.00 0.00 0.00 0.00 0.00 0.00 0.00 0.00 0.00 0.00 0.00 0.00 0.00 0.00 0.00 0.00 0.00 0.00 0.00 0.00 0.00 0.00 0.02 0.00 0.00 0.00 0.00 0.00 0.00 0.00 0.00 0.00 0.00 0.00 0.00 0.00 0.01 0.01 0.02 0.00 0.00 0.00 0.00
0.00 0.00 0.00 0.00 0.00 0.00 0.00 0.00 0.00 0.00 0.00 0.00 0.00 0.00 0.00 0.00 0.00 0.00 0.00 0.00 0.00 0.00 0.00 0.00 0.00 0.00 0.00 0.00 0.00 0.00 0.00 0.00 0.00 0.00 0.00 0.00 0.00 0.00 0.00 0.00 0.00 0.04 0.09 0.05 0.01 0.00 0.00 0.00 0.00
0.00 0.00 0.00 0.00 0.00 0.00 0.00 0.00 0.00 0.00 0.00 0.00 0.00 0.00 0.00 0.00 0.00 0.00 0.00 0.00 0.00 0.00 0.00 0.00 0.00 0.00 0.00 0.00 0.00 0.00 0.00 0.00 0.00 0.00 0.00 0.00 0.00 0.00 0.00 0.00 0.00 0.00 0.10 0.08 0.04 0.01 0.00 0.00 0.00
0.00 0.00 0.00 0.00 0.00 0.00 0.00 0.00 0.00 0.00 0.00 0.00 0.00 0.00 0.00 0.00 0.00 0.00 0.00 0.00 0.00 0.00 0.00 0.00 0.00 0.00 0.00 0.00 0.00 0.00 0.00 0.00 0.00 0.00 0.00 0.00 0.00 0.00 0.00 0.00 0.00 0.00 0.00 0.01 0.03 0.01 0.02 0.02 0.01
0.00 0.00 0.00 0.00 0.00 0.00 0.00 0.00 0.00 0.00 0.00 0.00 0.00 0.00 0.00 0.00 0.00 0.00 0.00 0.00 0.00 0.00 0.00 0.00 0.00 0.00 0.00 0.00 0.00 0.00 0.00 0.00 0.00 0.00 0.00 0.00 0.00 0.00 0.00 0.00 0.00 0.02 0.01 0.00 0.00 0.00 0.00 0.00 0.00
0.00 0.00 0.00 0.00 0.00 0.00 0.00 0.00 0.00 0.00 0.00 0.00 0.00 0.00 0.00 0.00 0.00 0.00 0.00 0.00 0.00 0.00 0.00 0.00 0.00 0.00 0.00 0.00 0.00 0.00 0.00 0.00 0.00 0.00 0.00 0.00 0.00 0.00 0.00 0.00 0.01 0.04 0.00 0.00 0.00 0.00 0.00 0.00 0.00
0.00 0.00 0.00 0.00 0.00 0.00 0.00 0.00 0.00 0.00 0.00 0.00 0.00 0.00 0.00 0.00 0.00 0.00 0.00 0.00 0.00 0.00 0.00 0.00 0.00 0.00 0.00 0.00 0.00 0.00 0.00 0.00 0.00 0.00 0.00 0.00 0.00 0.00 0.00 0.00 0.00 0.00 0.00 0.06 0.07 0.03 0.01 0.00 0.00
0.00 0.00 0.00 0.00 0.00 0.00 0.00 0.00 0.00 0.00 0.00 0.00 0.00 0.00 0.00 0.00 0.00 0.00 0.00 0.00 0.00 0.00 0.00 0.00 0.00 0.00 0.00 0.00 0.00 0.00 0.00 0.00 0.00 0.00 0.00 0.00 0.00 0.06 0.03 0.01 0.03 0.03 0.03 0.03 0.11 0.09 0.06 0.01 0.02
0.00 0.00 0.00 0.00 0.00 0.00 0.00 0.00 0.00 0.00 0.00 0.00 0.00 0.00 0.00 0.00 0.00 0.00 0.00 0.00 0.00 0.00 0.00 0.00 0.00 0.00 0.00 0.00 0.00 0.00 0.00 0.00 0.00 0.01 0.00 0.00 0.02 0.25 0.16 0.10 0.16 0.06 0.12 0.01 0.08 0.13 0.08 0.05 0.08
0.00 0.00 0.00 0.00 0.00 0.00 0.00 0.00 0.00 0.00 0.00 0.00 0.00 0.00 0.00 0.00 0.00 0.00 0.00 0.00 0.00 0.00 0.00 0.00 0.00 0.00 0.00 0.00 0.00 0.00 0.00 0.01 0.02 0.05 0.00 0.00 0.01 0.01 0.05 0.03 0.03 0.05 0.05 0.06 0.07 0.15 0.17 0.19 0.04
0.00 0.00 0.00 0.00 0.00 0.00 0.00 0.00 0.00 0.00 0.00 0.00 0.00 0.00 0.00 0.00 0.00 0.00 0.00 0.00 0.00 0.00 0.00 0.00 0.00 0.00 0.00 0.00 0.00 0.00 0.00 0.00 0.00 0.00 0.00 0.00 0.00 0.03 0.01 0.00 0.11 0.14 0.07 0.04 0.05 0.11 0.13 0.10 0.07
0.00 0.00 0.00 0.00 0.00 0.00 0.00 0.00 0.00 0.00 0.00 0.00 0.00 0.00 0.00 0.00 0.00 0.00 0.00 0.00 0.00 0.00 0.00 0.00 0.00 0.00 0.00 0.00 0.00 0.00 0.00 0.00 0.00 0.00 0.00 0.00 0.00 0.01 0.00 0.02 0.03 0.10 0.09 0.08 0.12 0.12 0.12 0.09 0.07
0.00 0.00 0.00 0.00 0.00 0.00 0.00 0.00 0.00 0.00 0.00 0.00 0.00 0.00 0.00 0.00 0.00 0.00 0.00 0.00 0.00 0.00 0.00 0.00 0.00 0.00 0.00 0.00 0.00 0.00 0.00 0.00 0.00 0.00 0.00 0.01 0.00 0.01 0.02 0.02 0.01 0.01 0.03 0.02 0.04 0.03 0.02 0.04 0.03
0.00 0.00 0.00 0.00 0.00 0.00 0.00 0.00 0.00 0.00 0.00 0.00 0.00 0.00 0.00 0.00 0.00 0.00 0.00 0.00 0.00 0.00 0.00 0.00 0.00 0.00 0.00 0.00 0.00 0.00 0.00 0.00 0.00 0.00 0.00 0.00 0.00 0.00 0.01 0.00 0.01 0.00 0.01 0.01 0.03 0.05 0.03 0.01 0.01
0.00 0.00 0.00 0.00 0.00 0.00 0.00 0.00 0.00 0.00 0.00 0.00 0.00 0.00 0.00 0.00 0.00 0.00 0.00 0.00 0.00 0.00 0.00 0.00 0.00 0.00 0.00 0.00 0.00 0.00 0.00 0.00 0.00 0.00 0.00 0.00 0.00 0.00 0.00 0.00 0.01 0.01 0.01 0.01 0.02 0.02 0.02 0.03 0.02
0.00 0.00 0.00 0.00 0.00 0.00 0.00 0.00 0.00 0.00 0.00 0.00 0.00 0.00 0.00 0.00 0.00 0.00 0.00 0.00 0.00 0.00 0.00 0.00 0.00 0.00 0.00 0.00 0.00 0.00 0.00 0.00 0.00 0.00 0.00 0.00 0.00 0.00 0.00 0.00 0.00 0.00 0.00 0.00 0.00 0.00 0.01 0.01 0.00
0.00 0.00 0.00 0.00 0.00 0.00 0.00 0.00 0.00 0.00 0.00 0.00 0.00 0.00 0.00 0.00 0.00 0.00 0.00 0.00 0.00 0.00 0.00 0.00 0.00 0.00 0.00 0.00 0.00 0.00 0.00 0.00 0.00 0.00 0.00 0.00 0.00 0.00 0.00 0.00 0.00 0.00 0.00 0.00 0.00 0.00 0.00 0.00 0.01
0.00 0.00 0.00 0.00 0.00 0.00 0.00 0.00 0.00 0.00 0.00 0.00 0.00 0.00 0.00 0.00 0.00 0.00 0.00 0.00 0.00 0.00 0.00 0.00 0.00 0.00 0.00 0.00 0.00 0.00 0.00 0.00 0.00 0.00 0.00 0.00 0.00 0.00 0.00 0.00 0.00 0.00 0.00 0.00 0.00 0.00 0.00 0.01 0.02
MSLP
1010.45 1009.65 1009.44 1008.47 1006.71 1004.49 1004.63 1004.92 1005.20 1005.43 1005.96 1007.02 1007.63 1007.68 1009.15 1009.91 1010.29 1011.84 1012.69 1013.37 1013.49 1014.17 1014.84 1015.49 1015.63 1015.94 1016.07 1016.31 1016.63 1016.71 1016.89 1017.16 1017.33 1017.46 1017.54 1017.80 1017.69 1018.04 1018.33 1018.49 1018.51 1018.50 1018.65 1018.74 1018.97 1019.32 1019.57 1019.57 1019.70
1009.07 1009.42 1009.16 1006.93 1004.54 1003.68 1004.57 1005.01 1005.49 1006.24 1006.99 1007.59 1008.14 1008.51 1009.33 1011.16 1012.18 1012.65 1013.26 1014.01 1014.14 1014.64 1015.22 1015.49 1016.02 1016.33 1016.59 1016.76 1017.10 1017.16 1017.38 1017.64 1017.78 1017.94 1018.05 1018.09 1018.19 1018.35 1018.56 1018.77 1018.81 1018.79 1019.04 1019.04 1019.22 1019.42 1019.67 1019.93 1020.11
1009.16 1009.06 1007.35 1004.98 1003.99 1004.09 1004.47 1005.29 1005.99 1006.86 1007.40 1007.46 1008.44 1009.45 1010.22 1012.81 1012.77 1013.09 1013.52 1014.13 1014.42 1014.76 1015.86 1016.03 1016.40 1016.68 1017.12 1017.35 1017.44 1017.58 1017.81 1018.01 1018.25 1018.25 1018.45 1018.41 1018.70 1018.84 1018.92 1019.05 1019.26 1019.09 1019.37 1019.53 1019.47 1019.64 1019.81 1020.00 1020.30
1008.53 1007.98 1006.55 1004.26 1003.96 1004.92 1005.04 1005.53 1006.12 1006.25 1007.36 1008.07 1008.69 1010.05 1012.01 1013.11 1012.92 1013.37 1013.98 1014.28 1014.78 1015.09 1016.37 1016.65 1016.91 1017.15 1017.46 1017.61 1017.82 1018.03 1018.26 1018.44 1018.65 1018.61 1018.69 1018.87 1019.18 1019.33 1019.35 1019.50 1019.68 1019.59 1019.58 1019.80 1019.80 1019.92 1020.11 1020.38 1020.57
1007.66 1006.20 1003.97 1003.65 1004.09 1004.73 1005.23 1005.87 1006.13 1006.48 1007.63 1008.43 1009.00 1010.71 1012.45 1013.37 1013.38 1014.01 1014.30 1014.74 1015.20 1016.45 1017.07 1017.26 1017.23 1017.60 1017.89 1018.03 1018.19 1018.43 1018.61 1018.82 1018.95 1019.01 1019.16 1019.26 1019.55 1019.74 1019.69 1019.86 1019.97 1020.02 1020.02 1020.13 1020.17 1020.23 1020.47 1020.62 1020.72
1006.12 1005.57 1003.53 1003.10 1003.77 1004.51 1005.12 1005.65 1006.13 1006.98 1007.98 1009.12 1009.99 1011.35 1013.37 1014.03 1013.85 1014.27 1014.73 1014.73 1015.00 1016.61 1017.52 1018.01 1018.11 1018.36 1018.74 1018.54 1018.79 1018.89 1019.03 1019.13 1019.28 1019.40 1019.49 1019.72 1019.91 1019.99 1020.03 1020.19 1020.26 1020.39 1020.47 1020.48 1020.50 1020.54 1020.72 1020.84 1020.96
1005.30 1004.19 1004.23 1003.49 1003.59 1004.02 1004.94 1005.58 1005.83 1006.73 1007.60 1008.89 1009.92 1011.19 1013.89 1014.06 1014.28 1014.81 1015.15 1015.36 1015.73 1016.89 1017.51 1018.27 1018.60 1019.00 1019.07 1019.19 1019.34 1019.43 1019.41 1019.44 1019.61 1019.73 1019.90 1020.08 1020.21 1020.28 1020.41 1020.42 1020.47 1020.66 1020.73 1020.97 1020.83 1020.81 1020.91 1021.07 1021.15
1005.26 1004.06 1003.48 1003.40 1003.27 1004.18 1005.12 1005.50 1006.24 1006.51 1008.37 1009.44 1009.76 1010.73 1013.01 1013.79 1014.36 1015.00 1015.53 1015.88 1016.72 1017.76 1018.00 1018.20 1018.50 1018.91 1019.61 1019.95 1019.96 1019.55 1019.69 1019.74 1019.92 1020.05 1020.19 1020.30 1020.42 1020.50 1020.61 1020.47 1020.77 1020.89 1020.94 1021.19 1021.10 1021.09 1021.13 1021.15 1021.25
1005.19 1003.40 1003.46 1003.90 1003.67 1004.19 1005.16 1005.40 1006.77 1007.51 1008.35 1009.35 1009.99 1010.47 1012.42 1013.86 1014.38 1014.78 1015.58 1016.37 1017.09 1017.36 1018.00 1018.20 1018.56 1019.33 1019.80 1019.90 1019.79 1019.79 1019.72 1019.74 1019.99 1020.24 1020.33 1020.28 1019.93 1020.03 1019.85 1020.62 1021.00 1020.96 1021.08 1021.19 1021.20 1021.24 1021.28 1021.24 1021.06
1003.72 1003.15 1003.88 1004.31 1004.42 1004.54 1004.98 1005.34 1006.48 1007.21 1008.29 1009.66 1010.78 1012.21 1013.32 1014.11 1014.39 1014.73 1015.31 1015.74 1016.28 1017.12 1018.13 1018.64 1018.67 1019.51 1019.46 1019.77 1019.99 1020.02 1019.96 1019.82 1019.90 1019.88 1020.13 1019.66 1020.04 1020.15 1019.96 1020.62 1021.01 1021.07 1021.08 1021.07 1021.11 1021.17 1021.31 1021.16 1019.64
1004.30 1003.57 1004.07 1004.02 1004.62 1004.60 1004.71 1005.54 1006.31 1006.57 1007.33 1008.94 1010.58 1012.22 1013.40 1014.03 1014.41 1014.75 1015.01 1015.55 1016.14 1016.77 1017.50 1018.37 1018.29 1019.46 1019.14 1019.36 1020.18 1020.07 1020.16 1020.14 1019.70 1020.22 1020.14 1020.10 1020.23 1020.40 1020.14 1020.13 1020.10 1020.19 1020.50 1019.56 1020.08 1020.69 1019.94 1019.99 1019.97
1004.10 1004.30 1004.33 1004.10 1004.44 1004.74 1004.82 1005.60 1006.25 1006.90 1007.56 1008.97 1010.78 1012.13 1013.22 1013.87 1014.31 1014.71 1015.20 1015.71 1016.21 1016.72 1017.17 1017.85 1018.12 1018.86 1018.90 1019.10 1019.62 1020.04 1020.02 1019.95 1019.75 1020.26 1020.52 1020.56 1020.45 1020.49 1020.61 1020.29 1020.39 1020.45 1020.18 1020.48 1020.52 1019.84 1019.99 1020.31 1020.29
1004.39 1004.08 1004.29 1004.07 1004.26 1004.79 1005.29 1005.79 1006.45 1007.54 1008.36 1009.73 1011.10 1012.23 1012.98 1013.65 1014.34 1014.82 1015.43 1016.05 1016.45 1016.89 1017.32 1017.72 1018.43 1018.89 1019.45 1019.84 1019.59 1019.58 1019.62 1020.06 1019.83 1020.29 1020.52 1020.55 1020.39 1020.34 1020.41 1020.39 1020.70 1020.59 1020.40 1020.14 1020.46 1020.31 1020.36 1020.28 1020.27
1004.89 1004.42 1004.12 1004.10 1004.36 1004.86 1004.95 1006.05 1006.44 1008.21 1009.10 1010.22 1011.36 1012.08 1012.77 1013.47 1014.20 1014.83 1015.38 1015.90 1016.50 1017.02 1017.42 1017.83 1018.31 1018.68 1019.10 1019.31 1019.51 1019.56 1019.55 1019.59 1019.70 1019.62 1019.97 1020.38 1020.40 1020.37 1020.30 1020.23 1020.11 1020.21 1020.63 1020.70 1020.58 1020.25 1020.38 1020.51 1020.13
1005.07 1004.54 1003.45 1003.63 1004.03 1004.67 1004.80 1005.88 1006.43 1008.14 1009.19 1010.21 1011.12 1011.90 1012.61 1013.36 1014.07 1014.69 1015.29 1015.82 1016.37 1016.90 1017.35 1017.82 1018.37 1018.71 1019.12 1019.39 1019.52 1019.59 1019.27 1019.31 1019.14 1019.14 1019.58 1019.98 1020.39 1020.48 1020.66 1020.43 1020.26 1019.85 1020.12 1020.51 1020.31 1020.42 1020.20 1020.27 1019.91
1004.44 1003.92 1002.61 1003.47 1003.90 1004.59 1004.54 1005.12 1007.11 1008.19 1008.96 1009.93 1010.88 1011.67 1012.44 1013.14 1013.77 1014.35 1015.09 1015.68 1016.22 1016.68 1017.35 1017.81 1018.04 1018.43 1018.89 1019.16 1019.30 1019.24 1019.04 1019.02 1018.92 1018.91 1019.05 1019.40 1019.72 1019.91 1019.98 1019.94 1019.90 1019.95 1020.08 1019.91 1019.94 1020.10 1020.00 1019.96 1019.74
1003.63 1002.35 1002.26 1003.23 1003.71 1004.14 1004.23 1005.01 1007.16 1007.96 1008.56 1009.52 1010.53 1011.34 1012.10 1012.90 1013.57 1014.12 1014.72 1015.30 1015.77 1016.55 1017.23 1017.83 1018.19 1018.36 1018.69 1018.96 1019.01 1019.18 1019.23 1019.21 1018.86 1018.84 1018.85 1019.04 1019.38 1019.47 1019.56 1019.28 1019.41 1019.83 1019.83 1019.86 1019.71 1019.97 1019.99 1019.79 1019.69
1002.47 1002.22 1002.52 1002.62 1003.42 1003.70 1003.86 1005.08 1006.76 1007.65 1008.09 1008.93 1009.87 1010.75 1011.50 1012.24 1012.93 1013.70 1014.33 1014.90 1015.51 1016.31 1017.00 1017.63 1018.00 1018.30 1018.60 1018.70 1019.05 1018.79 1018.69 1018.73 1018.65 1018.56 1018.55 1018.77 1018.92 1019.18 1019.26 1018.74 1018.85 1019.17 1019.17 1019.47 1019.61 1019.77 1019.79 1019.72 1019.36
1003.43 1002.63 1002.44 1003.06 1003.73 1003.78 1003.45 1004.69 1006.22 1007.24 1007.70 1008.36 1009.11 1009.98 1010.69 1011.38 1012.14 1013.00 1013.86 1014.53 1015.14 1015.90 1016.63 1017.17 1017.64 1017.94 1018.34 1018.48 1018.43 1018.34 1018.08 1018.05 1018.01 1017.95 1018.16 1018.50 1018.64 1018.75 1018.81 1018.52 1018.28 1018.31 1018.40 1018.54 1018.98 1019.10 1018.97 1018.86 1019.18
1003.59 1002.78 1002.66 1003.61 1003.95 1003.91 1003.89 1004.51 1005.65 1006.72 1007.03 1007.59 1008.39 1009.11 1009.69 1010.48 1011.39 1012.39 1013.29 1014.04 1014.71 1015.29 1016.04 1016.71 1017.12 1017.58 1017.96 1017.90 1017.98 1017.87 1017.77 1017.55 1017.45 1017.42 1017.67 1017.92 1018.04 1018.16 1018.25 1018.11 1017.86 1017.60 1017.76 1018.05 1018.33 1018.55 1018.47 1017.96 1018.30
1002.87 1002.46 1002.77 1002.71 1003.81 1003.80 1003.86 1004.41 1005.31 1006.05 1006.73 1007.16 1007.73 1008.44 1008.99 1009.54 1010.58 1011.72 1012.73 1013.46 1014.05 1014.63 1015.28 1015.85 1016.51 1016.99 1017.44 1017.67 1017.77 1017.94 1018.01 1017.84 1017.54 1017.48 1017.28 1017.09 1017.37 1017.77 1017.72 1017.58 1017.81 1017.75 1017.80 1017.66 1017.64 1017.97 1017.87 1017.68 1017.79
1002.21 1003.14 1003.16 1003.17 1003.32 1002.78 1003.79 1002.69 1004.06 1004.75 1005.76 1006.49 1007.03 1007.70 1008.29 1009.02 1009.87 1010.82 1011.84 1012.66 1013.24 1013.74 1014.26 1015.10 1015.85 1016.51 1016.99 1017.43 1017.46 1017.46 1017.11 1016.87 1016.56 1017.03 1017.20 1017.41 1017.13 1017.10 1017.19 1017.04 1017.05 1017.09 1016.88 1017.11 1017.29 1017.42 1017.66 1017.67 1017.05
1002.75 1003.44 1003.39 1003.41 1003.08 1003.17 1003.56 1003.15 1002.65 1004.04 1004.49 1004.90 1005.75 1006.59 1007.47 1008.43 1009.18 1009.93 1010.88 1011.64 1012.31 1012.86 1013.50 1014.40 1015.30 1016.01 1016.56 1016.91 1017.20 1016.92 1016.90 1016.59 1016.50 1016.90 1016.93 1016.86 1016.80 1016.84 1016.92 1016.88 1016.78 1017.11 1016.83 1016.50 1016.81 1016.80 1016.80 1016.61 1016.76
1003.59 1003.76 1003.87 1003.82 1003.13 1003.15 1002.90 1003.43 1002.43 1002.81 1003.61 1003.57 1004.38 1005.56 1006.67 1007.59 1008.53 1009.22 1010.12 1010.93 1011.68 1012.34 1013.00 1013.71 1014.77 1015.51 1015.99 1016.35 1016.57 1016.74 1016.62 1016.62 1016.46 1016.22 1016.32 1016.09 1015.85 1015.75 1015.94 1016.18 1016.39 1016.33 1016.31 1016.26 1016.27 1016.25 1016.30 1016.17 1015.90
1003.38 1002.90 1002.55 1002.96 1002.85 1002.75 1003.72 1003.76 1002.83 1003.30 1004.01 1004.29 1003.84 1004.57 1005.87 1006.87 1007.83 1008.56 1009.34 1010.31 1011.12 1011.79 1012.61 1013.44 1014.27 1014.94 1015.38 1015.75 1015.97 1016.19 1016.41 1016.46 1016.44 1016.46 1015.89 1015.91 1015.47 1014.91 1015.00 1015.68 1015.95 1015.74 1015.40 1015.41 1015.52 1015.73 1015.54 1015.50 1015.45
1002.69 1002.12 1001.57 1002.07 1002.18 1002.64 1004.57 1003.51 1003.12 1004.17 1004.53 1004.69 1004.61 1004.13 1005.09 1006.19 1007.10 1007.85 1008.55 1009.60 1010.45 1011.25 1012.24 1013.01 1013.72 1014.31 1014.72 1015.02 1015.39 1015.73 1015.98 1015.94 1015.73 1015.67 1015.72 1015.58 1015.39 1015.23 1015.27 1015.32 1015.36 1015.04 1014.91 1014.73 1014.81 1015.16 1015.19 1015.12 1015.00
1002.65 1002.73 1002.47 1002.65 1003.40 1003.26 1003.01 1003.67 1003.68 1004.10 1004.16 1004.48 1004.36 1004.25 1004.66 1005.74 1006.39 1007.35 1008.08 1008.87 1009.81 1010.71 1011.65 1012.33 1013.07 1013.67 1014.05 1014.44 1014.92 1015.35 1015.59 1015.65 1015.30 1015.61 1015.72 1015.34 1015.54 1015.23 1015.11 1015.16 1015.06 1014.87 1014.93 1014.67 1014.42 1014.40 1014.38 1014.41 1014.48
1002.60 1002.51 1002.79 1002.69 1002.65 1002.77 1003.07 1003.64 1003.03 1003.70 1003.87 1004.39 1004.53 1004.59 1005.10 1005.69 1006.27 1007.08 1007.93 1008.76 1009.50 1010.34 1011.16 1011.86 1012.53 1013.03 1013.41 1013.89 1014.34 1014.58 1014.85 1015.15 1015.44 1015.59 1015.61 1015.61 1015.60 1015.58 1015.48 1015.26 1014.99 1014.69 1014.44 1014.26 1014.07 1013.59 1013.25 1013.18 1013.22
1002.86 1002.49 1002.46 1002.24 1003.11 1002.49 1002.75 1002.73 1003.99 1004.14 1004.22 1004.34 1004.64 1004.84 1005.20 1005.74 1006.25 1007.01 1007.74 1008.72 1009.60 1010.26 1010.92 1011.49 1012.11 1012.65 1013.11 1013.52 1013.86 1014.29 1014.51 1014.91 1015.14 1015.28 1015.37 1015.50 1015.47 1015.39 1015.26 1015.00 1014.64 1014.32 1014.03 1013.77 1013.47 1013.26 1013.03 1012.63 1012.31
1001.43 1001.44 1002.08 1001.99 1003.09 1003.30 1003.54 1003.17 1003.73 1004.30 1004.61 1004.78 1004.74 1005.14 1005.44 1005.96 1006.55 1007.29 1007.93 1008.99 1009.92 1010.26 1010.82 1011.39 1011.94 1012.43 1012.78 1013.28 1013.72 1014.08 1014.36 1014.58 1014.73 1014.95 1015.18 1015.30 1015.25 1015.12 1014.91 1014.58 1014.17 1013.73 1013.32 1013.05 1012.78 1012.47 1012.14 1011.76 1011.26
Thickness
5823 5828 5830 5825 5813 5825 5795 5795 5812 5799 5798 5805 5804 5799 5781 5783 5774 5753 5785 5783 5784 5779 5773 5770 5769 5768 5767 5765 5764 5765 5766 5767 5768 5768 5769 5768 5771 5771 5769 5768 5769 5771 5769 5769 5767 5763 5761 5763 5763
5835 5831 5825 5826 5821 5801 5794 5812 5798 5802 5804 5808 5802 5799 5789 5766 5775 5775 5774 5777 5777 5774 5771 5769 5767 5764 5763 5762 5761 5762 5763 5763 5765 5766 5766 5768 5767 5769 5768 5768 5769 5771 5768 5769 5767 5766 5763 5761 5761
5838 5836 5824 5827 5821 5794 5794 5808 5805 5806 5810 5808 5795 5799 5789 5756 5776 5776 5784 5779 5776 5774 5766 5765 5764 5761 5759 5758 5757 5758 5760 5761 5761 5763 5763 5766 5764 5765 5766 5766 5767 5769 5768 5766 5768 5766 5765 5765 5762
5837 5833 5834 5825 5807 5807 5807 5812 5814 5814 5812 5811 5804 5781 5781 5781 5780 5784 5783 5779 5775 5771 5763 5761 5760 5759 5757 5757 5755 5756 5755 5756 5757 5760 5762 5762 5762 5762 5763 5763 5764 5766 5768 5766 5766 5765 5764 5762 5762
5845 5839 5832 5822 5813 5817 5820 5819 5819 5810 5805 5802 5803 5777 5769 5779 5787 5783 5781 5777 5773 5763 5758 5758 5755 5756 5755 5753 5751 5752 5753 5753 5755 5757 5759 5760 5759 5759 5761 5760 5762 5763 5764 5764 5764 5765 5762 5761 5762
5835 5839 5826 5818 5817 5822 5825 5827 5821 5811 5807 5800 5791 5777 5765 5779 5782 5781 5779 5779 5776 5763 5757 5753 5749 5750 5748 5746 5746 5748 5749 5751 5752 5754 5756 5756 5756 5757 5759 5758 5760 5760 5760 5761 5762 5763 5761 5761 5760
5836 5837 5814 5825 5821 5822 5823 5835 5823 5816 5810 5799 5804 5776 5765 5773 5781 5779 5777 5776 5771 5762 5757 5750 5745 5745 5744 5743 5741 5741 5745 5748 5750 5752 5752 5752 5753 5755 5756 5756 5759 5757 5757 5756 5759 5760 5761 5760 5760
5849 5847 5829 5833 5827 5816 5832 5833 5833 5826 5802 5815 5813 5783 5763 5778 5783 5780 5775 5772 5765 5756 5754 5751 5748 5746 5740 5740 5739 5742 5743 5745 5747 5749 5750 5751 5752 5752 5752 5755 5756 5756 5755 5754 5757 5757 5759 5759 5758
5862 5839 5820 5820 5826 5827 5839 5828 5831 5832 5814 5810 5810 5806 5793 5787 5785 5779 5771 5765 5761 5760 5754 5752 5748 5743 5741 5740 5740 5741 5742 5744 5746 5747 5749 5752 5755 5756 5758 5755 5752 5755 5753 5753 5755 5756 5756 5758 5760
5855 5840 5827 5841 5841 5832 5838 5836 5828 5820 5811 5801 5798 5797 5791 5786 5781 5775 5769 5766 5765 5758 5752 5749 5748 5744 5743 5742 5741 5742 5745 5746 5747 5749 5749 5755 5754 5755 5759 5755 5753 5753 5754 5755 5755 5755 5755 5757 5769
5850 5835 5846 5849 5848 5849 5842 5834 5839 5827 5814 5813 5797 5791 5789 5785 5781 5777 5776 5772 5766 5763 5759 5752 5752 5744 5746 5746 5741 5742 5744 5745 5751 5748 5749 5751 5753 5754 5757 5758 5758 5758 5758 5765 5762 5759 5763 5764 5764
5840 5850 5849 5853 5854 5846 5839 5843 5831 5830 5826 5828 5813 5803 5793 5786 5783 5779 5775 5772 5769 5765 5763 5758 5756 5750 5752 5750 5746 5744 5745 5747 5750 5747 5747 5747 5750 5754 5754 5757 5757 5756 5758 5758 5757 5762 5761 5760 5760
5842 5850 5853 5859 5857 5850 5848 5836 5831 5824 5832 5826 5814 5805 5796 5791 5786 5785 5781 5776 5773 5766 5764 5762 5754 5751 5748 5746 5747 5748 5748 5748 5751 5748 5748 5749 5751 5753 5753 5754 5754 5755 5756 5758 5756 5757 5757 5759 5759
5847 5849 5851 5856 5852 5850 5843 5835 5839 5824 5830 5817 5809 5804 5801 5795 5790 5787 5783 5778 5775 5771 5767 5765 5759 5753 5750 5750 5749 5750 5752 5753 5753 5754 5752 5750 5750 5751 5751 5753 5754 5754 5751 5750 5752 5755 5755 5755 5759
5847 5834 5855 5856 5855 5844 5855 5825 5827 5831 5828 5814 5809 5806 5803 5799 5795 5789 5787 5782 5780 5776 5774 5768 5762 5757 5754 5752 5751 5752 5755 5756 5759 5759 5757 5754 5751 5749 5747 5749 5751 5753 5750 5748 5751 5750 5753 5754 5758
5839 5845 5838 5853 5854 5851 5851 5819 5827 5835 5826 5814 5810 5807 5803 5800 5798 5796 5792 5788 5785 5781 5775 5772 5769 5765 5759 5757 5756 5757 5760 5761 5762 5762 5762 5759 5756 5754 5753 5752 5752 5751 5749 5749 5750 5750 5753 5754 5757
5841 5836 5844 5839 5858 5850 5848 5828 5829 5838 5831 5817 5813 5809 5805 5801 5799 5799 5796 5793 5790 5785 5779 5773 5771 5769 5767 5764 5763 5762 5762 5762 5764 5763 5763 5762 5759 5759 5758 5758 5756 5751 5750 5749 5749 5747 5748 5749 5752
5831 5838 5844 5840 5850 5853 5846 5833 5831 5836 5834 5824 5819 5813 5808 5804 5802 5803 5800 5798 5793 5788 5783 5778 5775 5773 5770 5768 5766 5767 5767 5767 5767 5767 5768 5766 5764 5761 5759 5762 5759 5757 5756 5752 5751 5748 5748 5747 5750
5838 5842 5841 5846 5853 5845 5852 5839 5832 5835 5835 5827 5824 5819 5814 5812 5814 5811 5805 5801 5796 5790 5785 5781 5778 5777 5773 5770 5769 5769 5769 5771 5772 5771 5770 5767 5765 5764 5763 5764 5765 5764 5763 5762 5758 5755 5753 5752 5752
5834 5836 5837 5840 5847 5845 5844 5836 5840 5836 5837 5836 5830 5826 5824 5821 5818 5813 5808 5804 5798 5794 5789 5785 5782 5780 5776 5776 5774 5774 5773 5775 5775 5774 5772 5770 5768 5766 5765 5766 5768 5769 5768 5764 5761 5758 5756 5760 5758
5840 5840 5834 5839 5840 5850 5842 5826 5828 5839 5840 5842 5840 5837 5834 5829 5821 5816 5811 5806 5804 5799 5795 5792 5788 5785 5781 5778 5776 5773 5772 5772 5773 5773 5774 5774 5772 5768 5767 5768 5765 5765 5763 5763 5763 5760 5758 5754 5757
5835 5845 5841 5836 5830 5821 5843 5818 5832 5842 5834 5836 5837 5836 5835 5834 5831 5824 5817 5812 5809 5807 5805 5799 5794 5789 5785 5780 5777 5774 5774 5772 5779 5775 5773 5770 5771 5770 5768 5768 5768 5766 5766 5764 5761 5759 5756 5753 5753
5834 5845 5838 5835 5833 5830 5824 5820 5844 5845 5833 5841 5844 5843 5840 5837 5834 5829 5824 5820 5818 5815 5810 5804 5797 5791 5786 5782 5778 5778 5774 5777 5778 5773 5771 5771 5769 5767 5765 5766 5765 5762 5762 5764 5760 5760 5759 5759 5753
5843 5831 5829 5830 5834 5801 5829 5817 5831 5840 5839 5852 5855 5850 5845 5841 5836 5835 5832 5827 5821 5818 5811 5805 5795 5790 5787 5784 5781 5776 5774 5772 5771 5773 5770 5771 5773 5772 5768 5765 5762 5761 5761 5760 5758 5758 5756 5756 5756
5834 5825 5803 5790 5797 5800 5821 5809 5828 5846 5845 5846 5854 5854 5849 5845 5838 5834 5830 5824 5820 5817 5813 5807 5799 5791 5789 5785 5782 5778 5773 5770 5767 5766 5769 5766 5769 5772 5771 5764 5758 5760 5761 5759 5756 5754 5755 5754 5751
5826 5835 5819 5776 5793 5807 5805 5796 5823 5841 5846 5848 5852 5862 5857 5848 5843 5837 5834 5828 5822 5816 5809 5804 5799 5793 5791 5787 5783 5780 5776 5774 5772 5770 5766 5765 5764 5764 5762 5759 5755 5756 5754 5755 5753 5749 5748 5747 5747
5820 5810 5839 5810 5811 5799 5816 5816 5835 5840 5840 5841 5846 5853 5852 5846 5845 5838 5835 5831 5824 5816 5809 5804 5797 5792 5789 5786 5781 5776 5773 5770 5771 5766 5762 5763 5758 5757 5755 5751 5750 5749 5745 5746 5748 5745 5743 5742 5739
5829 5842 5804 5813 5776 5773 5796 5793 5807 5819 5828 5832 5835 5840 5842 5844 5843 5838 5832 5827 5824 5818 5812 5806 5800 5792 5788 5783 5779 5774 5770 5766 5761 5758 5754 5752 5750 5747 5744 5742 5742 5741 5740 5739 5738 5741 5742 5740 5740
5811 5811 5821 5826 5806 5792 5780 5799 5823 5819 5826 5826 5831 5837 5838 5838 5838 5834 5831 5826 5819 5815 5810 5804 5797 5789 5783 5778 5773 5768 5764 5759 5755 5750 5747 5742 5740 5737 5734 5733 5732 5732 5732 5731 5731 5730 5730 5731 5733
5839 5829 5822 5802 5782 5799 5792 5797 5835 5828 5827 5828 5831 5832 5836 5836 5833 5829 5825 5818 5809 5806 5801 5795 5790 5783 5779 5773 5766 5761 5756 5752 5747 5742 5738 5734 5730 5728 5725 5723 5723 5722 5722 5722 5721 5722 5723 5724 5726